Flag for Central African Republic Weather past 2 weeks in Bimbo, Central African Republic

Now
90 °F

Broken clouds.


Feels Like: 93 °F
Forecast: 60 / 98 °F
Wind: 5 mph from Northwest

Location: Bangui Airport

Current Time: Jan 30, 2015 at 1:32:14 PM

Latest Report: Jan 30, 2015 at 12:00 PM


Visibility: N/A

Pressure: 29.89 "Hg

Humidity: 49%

Dew point: 68 °F

Location of BimboLocation

Historic Weather in Bimbo — Graph

°F

Bimbo temperature yesterday

Maximum temperature yesterday: 95 °F (at 1:00 PM)
Minimum temperature yesterday: 75 °F (at 6:00 AM)
Average temperature yesterday: 84 °F

Past Weeks' High & Low Weather Summary

 TemperatureHumidityPressure
High99 °F (Jan 22, 3:00 PM)100% (Jan 24, 3:00 AM)30.01 "Hg (Jan 24, 3:00 AM)
Low57 °F (Jan 16, 6:00 AM)14% (Jan 15, 2:00 PM)29.71 "Hg (Jan 24, 3:00 PM)
Average79 °F67%29.85 "Hg
* Reported Jan 15 12:00 Noon — Jan 30 12:00 Noon, Bimbo, Weather by CustomWeather, © 2014

Note: Actual official high and low records may vary slightly from our data, if they occured in-between our weather recording intervals... More about our weather records

Advertising

Bimbo weather history for previous 24 hours

 ConditionsComfort  
Time TempWeatherWind HumidityBarometerVisibility
12:00 PM
Jan 30
90 °FBroken clouds.5 mph49%29.89 "HgN/A
11:00 AM88 °FBroken clouds.5 mph59%29.92 "HgN/A
10:00 AM86 °FPartly sunny.3 mph66%29.95 "HgN/A
9:00 AM81 °FPartly sunny.3 mph79%29.95 "HgN/A
8:00 AM81 °FPartly sunny.No wind79%29.92 "Hg5 mi
7:00 AM73 °FPartly sunny.2 mph100%29.92 "Hg4 mi
6:00 AM72 °FPassing clouds.2 mph100%29.89 "Hg4 mi
5:00 AM73 °FPassing clouds.No wind94%29.89 "HgN/A
4:00 AM75 °FClear.2 mph94%29.89 "Hg10 mi
3:00 AM73 °FClear.No wind100%29.86 "Hg10 mi
2:00 AM73 °FClear.No wind100%29.86 "Hg10 mi
1:00 AM75 °FClear.No wind94%29.86 "Hg10 mi
12:00 AM77 °FClear.No wind89%29.86 "Hg10 mi
10:00 PM
Jan 29
79 °FClear.No wind84%29.86 "Hg10 mi
9:00 PM81 °FClear.No wind79%29.86 "Hg10 mi
8:00 PM82 °FPassing clouds.No wind74%29.83 "Hg5 mi
6:00 PM88 °FClear.No wind62%29.77 "Hg5 mi
5:00 PM91 °FPartly sunny.9 mph52%29.74 "HgN/A
4:00 PM95 °FPartly sunny.6 mph36%29.74 "HgN/A
3:00 PM95 °FPartly sunny.8 mph41%29.74 "HgN/A
2:00 PM95 °FPartly sunny.6 mph41%29.77 "HgN/A
1:00 PM95 °FPartly sunny.7 mph41%29.80 "HgN/A
Weather by CustomWeather, © 2014

See weather overviewHow to use our weather pages